Regional Weather Roundup
Issued by NWS

Home | Current Version | Previous Version | Graphics & Text | Print | Product List | Glossary On
Versions: 1 2 3 4 5 6 7 8 9 10 11 12 13 14 15 16 17 18 19 20 21 22 23 24 25 26 27 28 29 30 31 32 33 34 35 36 37 38 39 40 41 42 43 44 45 46 47 48 49 50
100
ASUS45 KCYS 231510
RWRWY

WYOMING REGIONAL WEATHER ROUNDUP
NATIONAL WEATHER SERVICE CHEYENNE WY
900 AM MDT WED AUG 23 2017

NOTE:  "FAIR" INDICATES FEW OR NO CLOUDS BELOW 12,000 FEET
WITH NO SIGNIFICANT WEATHER AND/OR OBSTRUCTIONS TO VISIBILITY.

WYZ001-231600-
YELLOWSTONE NATIONAL PARK

CITY           SKY/WX    TMP DP  RH WIND       PRES   REMARKS
LK YELLOWSTONE   N/A     54  45  71 CALM      30.41S
W YELLOWSTONE  NOT AVBL

$$
WYZ002>013-054>058-071-098>099-231600-
NORTHERN WYOMING

CITY           SKY/WX    TMP DP  RH WIND       PRES   REMARKS
JACKSON        FAIR      53  34  48 CALM      30.34S
CODY           FAIR      72  45  37 NW5       30.16S
GREYBULL       FAIR      63  39  41 MISG      30.10S
WORLAND        FAIR      61  43  51 SW3       30.11F
SHERIDAN       FAIR      65  47  52 CALM      30.08S
BUFFALO        FAIR      79  34  19 N3        30.14S
GILLETTE       FAIR      74  44  34 E3        30.11S
HULETT         FAIR      72  52  49 CALM      30.12S
NEWCASTLE      FAIR      72  48  43 CALM      30.11F

$$
WYZ014>020-022>026-101>103-231600-
CENTRAL WYOMING

CITY           SKY/WX    TMP DP  RH WIND       PRES   REMARKS
BIG PINEY      CLOUDY    53  40  61 SW6       30.34R
PINEDALE       FAIR      57  36  44 N6        30.35S
DUBOIS         FAIR      59  30  33 NW12      30.33F
LANDER           N/A    N/A N/A N/A MISG      30.20F
RIVERTON       FAIR      66  32  28 W8        30.21S
CASPER         FAIR      73  39  29 S20       30.19S
DOUGLAS        FAIR      63  47  55 NW6       30.17F

$$
WYZ021-027>030-104>119-231600-
SOUTHERN WYOMING

CITY           SKY/WX    TMP DP  RH WIND       PRES   REMARKS
EVANSTON       CLOUDY    61  47  59 E7        30.37R
KEMMERER         N/A     61  43  51 NW10      30.38S
FORT BRIDGER   RAIN      60  48  62 SE13      30.39S
ROCK SPRINGS   CLOUDY    66  39  37 SW17      30.33R
DIXON          CLOUDY    60  39  46 SE5       30.36R
RAWLINS        NOT AVBL
SARATOGA       FAIR      63  37  39 CALM      30.35R
LARAMIE        FAIR      67  41  38 CALM      30.33S
CHEYENNE       FAIR      76  44  32 NW3       30.24R
TORRINGTON     FAIR      64  55  72 S3        30.12S
PINE BLUFFS    FAIR      68  54  60 N5        30.18F

$$




USA.gov is the U.S. government's official web portal to all federal, state and local government web resources and services.